Regional Weather Roundup
Issued by NWS Charleston, SC

Home | Current Version | Previous Version | Text Only | Print | Product List | Glossary On
Versions: 1 2 3 4 5 6 7 8 9 10 11 12 13 14 15 16 17 18 19 20 21 22 23 24 25 26 27 28 29 30 31 32 33 34 35 36 37 38 39 40 41 42 43 44 45 46 47 48 49 50
000
ASUS42 KCHS 041326
RWRCHS

REGIONAL WEATHER ROUNDUP
NATIONAL WEATHER SERVICE CHARLESTON SC
800 AM EST WED MAR 04 2015

NOTE: "FAIR" INDICATES FEW OR NO CLOUDS BELOW 12,000 FEET WITH NO
SIGNIFICANT WEATHER AND/OR OBSTRUCTIONS TO VISIBILITY.

NOT ALL STATIONS ARE QUALITY CONTROLLED BY THE NATIONAL
WEATHER SERVICE. USE DATA WITH CAUTION...ESPECIALLY
DEWPOINT OBSERVATIONS.

SCZ027-030-031-034>040-042>050-041400-
...SOUTHEAST SOUTH CAROLINA...

CITY           SKY/WX    TMP DP  RH WIND       PRES   REMARKS
N CHARLESTON   MOSUNNY   68  64  87 SW16G25   30.11S
WATERFRONT PRK   N/A     63 N/A N/A SW9         N/A
MOUNT PLEASANT FAIR      68  64  88 S13G18    30.12R
PINOPOLIS      NOT AVBL
MONCKS CORNER  CLOUDY    66  64  94 SW9       30.10S
SUMMERVILLE    CLOUDY    64  64 100 S7        30.11S
BEAUFORT MCAS  PTSUNNY   66  63  90 S9        30.11S
BEAUFORT ARPT  FAIR      64  64 100 S7        30.11S
HILTON HEAD IS   N/A     61  61 100 S6        30.14R FOG
WALTERBORO     MOSUNNY   66  66 100 S8        30.11R
ALLENDALE      CLOUDY    63  63 100 CALM      30.09S

...SOUTHERN MIDLANDS AND PEE DEE...

CITY           SKY/WX    TMP DP  RH WIND       PRES   REMARKS
GEORGETOWN     NOT AVBL
KINGSTREE      NOT AVBL
ORANGEBURG     FOG       55  53  93 CALM      30.09R VSB<1/4
BARNWELL       FOG       59  59 100 CALM      30.09S VSB 1/2
AIKEN          CLOUDY    59  59 100 S6        30.10S FOG
MANNING        CLOUDY   N/A N/A N/A S5        30.09S FOG
COLUMBIA       CLOUDY    53  53 100 CALM      30.07R FOG
SUMTER         CLOUDY    59  57  94 CALM      30.06R FOG
FLORENCE       CLOUDY    56  55  97 SW9       30.07R FOG
MYRTLE BEACH   PTSUNNY   57  55  94 S12       30.11F
N MYRTLE BEACH FOG       52  51  97 SW12      30.10R VSB 1/4

$$

GAZ063-065-086>088-099>101-113>116-118-119-134>141-150-041400-
...SOUTHEAST GEORGIA...

CITY           SKY/WX    TMP DP  RH WIND       PRES   REMARKS
SAVANNAH ARPT  PTSUNNY   65  63  93 S9        30.11S
HUNTER AAF     MOSUNNY   66  66 100 S8        30.10R
FORT STEWART   MOSUNNY   65  64  96 S6        30.11R
STATESBORO     SUNNY     65  65 100 SW7       30.10R
SYLVANIA       SUNNY     64  64 100 SW6       30.11R FOG
CLAXTON        FAIR      64  64 100 CALM      30.11R

...CSRA...CENTRAL AND FAR SOUTHEAST GEORGIA...

CITY           SKY/WX    TMP DP  RH WIND       PRES   REMARKS
THOMSON        CLOUDY    57  57 100 S3        30.12R VSB<1/4
AUGUSTA-BUSH   FOG       52  51  97 SE3       30.08R VSB 1/2
AUGUSTA-DANIEL FOG       54  52  93 SE6       30.08S VSB 1/4
SWAINSBORO     NOT AVBL
VIDALIA        PTSUNNY   64  64 100 SW6       30.11R
EASTMAN        PTSUNNY   63  63 100 SW5       30.13R
HAZLEHURST     FAIR      66  65  95 CALM      30.11R
ALMA           MOSUNNY   64  62  93 S6        30.12R
WAYCROSS       MOSUNNY   68  67  95 SW3       30.13S
JESUP          CLOUDY    68  66  94 SW6       30.14R
BAXLEY         FAIR      64  63  94 SW5       30.12R
BRUNSWICK      MOSUNNY   66  64  94 S5        30.16R
SAINT SIMONS   FOG       60  60 100 S3        30.15R VSB 1/2

$$

SCZ027-028-034-036>038-045-046-048>050-GAZ119-141-041400-
...LAKE AND SUPPLEMENTAL COASTAL OBSERVATIONS...

STATION/POSITION TIME  TEMP    WIND        PRES    WAVE   SWELL
                       AIR SEA DIR/SP/G            HT/PER HT/PER/DIR
                 (UTC) (F)     (DEG/KT/KT) (MB)    (FT/S) (FT/S/D)
UPR LAKE MARION  NOT AVBL
WINYAH BAY       1200   61     220/ 11     1018.0S
LAKE MURRAY      1300   50      CALM  /  1 1017.6R
ACE BASIN NERRS  NOT AVBL
FORT PULASKI     1300   58 50  180/  4/  8 1020.7R
SAPELO ISLAND    1300   60     160/  6     1020.0S

$$

ANZ835-935-AMZ111-154-330-350-352-354-370-450-454-472-041400-
...C-MAN AND BUOY OBSERVATIONS...

STATION/POSITION TIME  TEMP    WIND        PRES    WAVE   SWELL
                       AIR SEA DIR/SP/G            HT/PER HT/PER/DIR
                 (UTC) (F)     (DEG/KT/KT) (MB)    (FT/S) (FT/S/D)
BUOY 41004       1250   67 68  230/ 12/ 12 1020.0R   5/ 6   5/ 6
BUOY 41008       1250   57 55  190/ 10/ 12 1020.6R   3/ 9   2/100/ 9
FOLLY BEACH CMAN 1300   53     220/  9/ 10 1020.8R
CAPERS NEARSHORE 1300   52                   N/A
FRIPP NEARSHORE  1200   53     220/  8/ 10 1019.5R


STATION/POSITION TIME  TEMP    WIND        PRES    WAVE   SWELL
                       AIR SEA DIR/SP/G            HT/PER HT/PER/DIR
                 (UTC) (F)     (DEG/KT/KT) (MB)    (FT/S) (FT/S/D)
5E ST. MARYS GA  1221      55                N/A     3/ 9
FRYING PAN BUOY  1250   67 62  210/ 12/ 14 1020.2R   5/ 7   3/120/ 7
BUOY 41025       NOT AVBL
CAPE LOOKOUT NC  1300   57     230/  8/ 11 1018.6R
BUOY 41002       1250   72 73  210/ 17/ 19 1023.4R   6/10   3/130/10
BUOY 41010       1220   74 74  160/ 12/ 14 1022.2R
ST AUGUSTINE FL  1300   60      CALM  /  1 1022.2R


$$



USA.gov is the U.S. government's official web portal to all federal, state and local government web resources and services.